Temp
10 10 9 9 9 9 9 8 8 8 8 8 7 7 7 7 7 7 7 7 7 7 7 7 7 6 6 6 6 6 7 6 6 6 6 6 6 6 6 6 6 6 6
10 9 9 9 9 9 9 9 8 8 8 8 7 7 7 7 7 7 7 7 7 7 7 7 6 6 6 6 6 6 6 6 6 6 6 6 6 6 5 6 5 5 5
10 9 9 9 9 8 8 9 8 8 8 8 8 8 8 8 7 7 7 7 7 7 7 6 6 6 6 6 6 7 6 6 6 6 6 6 6 5 5 4 5 5 5
9 9 9 9 9 8 8 8 8 8 7 7 8 8 8 8 8 8 8 7 7 7 7 6 6 6 6 6 6 6 6 6 6 6 6 5 5 5 5 4 5 5 5
9 9 9 9 9 8 8 8 8 8 7 7 7 8 7 7 7 7 7 7 7 7 7 7 6 5 6 5 6 6 6 5 5 5 5 5 5 5 5 5 4 4 4
9 8 8 9 9 9 8 8 8 7 7 7 7 7 7 6 6 6 7 6 7 7 7 7 6 6 6 6 5 5 5 5 4 4 4 4 4 4 4 4 3 4 3
9 9 9 9 9 9 8 8 8 7 7 6 6 6 6 6 6 6 6 6 6 6 6 6 6 6 5 5 5 5 4 4 4 4 4 4 4 3 3 3 3 3 2
9 9 9 9 8 9 8 8 7 7 6 6 5 6 6 6 6 5 5 5 5 5 5 5 5 5 5 5 4 4 4 4 4 4 3 3 3 3 2 3 2 2 2
9 9 9 9 8 8 8 8 7 6 5 5 5 5 5 5 5 5 5 5 4 5 5 4 4 4 4 4 3 3 3 3 3 3 3 3 2 2 2 2 2 2 2
9 9 9 8 8 8 8 8 7 6 5 5 5 5 5 5 5 5 4 4 4 4 4 4 3 3 3 3 3 2 2 2 2 2 2 2 2 2 2 2 2 1 1
9 9 9 9 8 8 7 8 7 5 5 5 4 4 4 4 4 4 4 4 4 4 3 3 3 2 2 2 2 2 1 1 2 1 2 2 2 2 2 2 2 2 1
9 9 9 8 8 7 7 7 7 6 5 5 4 4 4 4 4 4 3 3 3 3 3 3 2 2 2 2 2 1 1 1 1 1 1 2 2 2 2 2 2 1 1
9 9 8 8 8 8 8 7 6 5 4 5 5 4 4 4 4 3 3 3 3 3 3 2 2 2 2 3 2 2 1 1 1 1 2 1 1 1 1 1 1 1 1
8 8 8 7 8 7 7 6 5 5 4 4 4 4 4 4 3 3 2 3 2 2 2 1 2 2 2 2 2 1 1 1 1 1 1 1 1 1 1 1 1 1 0
8 8 8 7 7 7 7 6 5 5 5 4 4 4 3 3 3 2 2 2 1 1 1 1 1 1 2 2 1 1 1 0 0 0 0 1 1 1 0 0 0 -0 -1
8 8 7 6 6 6 6 5 5 3 4 4 3 3 3 3 3 2 2 1 1 1 0 1 1 1 1 1 1 0 0 -0 -0 0 0 0 0 -0 -0 -0 -1 -1 -2
7 7 6 5 5 5 5 5 3 3 3 3 3 3 2 2 2 2 2 2 1 1 1 1 0 0 -0 -1 -0 -1 -0 -0 -0 -0 -0 -0 -0 -1 -1 -1 -2 -2 -3
6 5 5 4 4 4 4 4 4 3 3 3 3 2 2 2 2 2 1 1 0 -0 -0 -0 -1 -1 -1 -1 -1 -1 -1 -1 -1 -1 -1 -1 -1 -1 -1 -2 -2 -3 -4
5 4 4 4 3 3 3 3 3 3 3 3 3 3 2 2 2 1 1 0 -0 -2 -1 -1 -1 -1 -1 -1 -1 -1 -1 -1 -1 -1 -1 -1 -1 -2 -2 -2 -3 -3 -4
4 3 3 3 3 3 2 2 2 2 2 2 2 2 1 1 1 0 -0 -1 -1 -2 -2 -2 -2 -1 -2 -1 -1 -1 -1 -2 -2 -2 -2 -2 -2 -2 -2 -3 -3 -4 -4
3 3 2 2 1 1 1 1 1 1 1 1 1 0 0 -0 -1 -2 -1 -2 -2 -2 -2 -2 -3 -2 -1 -2 -2 -2 -2 -2 -2 -2 -2 -2 -3 -3 -3 -3 -3 -4 -4
2 2 0 -2 0 -0 -1 -1 -1 -2 -2 -2 -2 -0 -1 -1 -1 -2 -3 -3 -3 -3 -3 -3 -3 -3 -3 -2 -2 -2 -3 -3 -3 -3 -3 -3 -3 -3 -3 -3 -4 -4 -4
-1 -1 -2 -2 -3 -2 -2 -3 -3 -3 -3 -4 -4 -4 -2 -2 -2 -3 -3 -4 -4 -4 -4 -4 -3 -3 -3 -3 -3 -3 -3 -3 -4 -4 -3 -3 -4 -3 -4 -4 -4 -4 -4
-3 -3 -3 -2 -2 -2 -3 -3 -3 -3 -3 -3 -3 -4 -4 -5 -5 -6 -5 -5 -5 -5 -4 -4 -4 -5 -4 -4 -4 -4 -4 -4 -4 -4 -4 -4 -4 -4 -4 -4 -4 -4 -5
-2 -2 -2 -3 -2 -3 -3 -3 -2 -2 -3 -3 -3 -3 -3 -4 -4 -5 -5 -5 -6 -6 -6 -6 -5 -5 -5 -5 -5 -6 -5 -5 -6 -5 -5 -5 -5 -5 -5 -5 -5 -5 -5
-3 -2 -2 -3 -3 -3 -3 -3 -3 -3 -3 -4 -4 -4 -4 -5 -5 -5 -5 -5 -6 -6 -6 -6 -6 -7 -7 -7 -6 -6 -6 -6 -6 -6 -6 -6 -6 -5 -5 -5 -5 -5 -5
Height
3178 3178 3177 3176 3174 3171 3169 3166 3163 3161 3159 3155 3152 3150 3148 3147 3146 3146 3146 3146 3146 3145 3145 3146 3147 3148 3149 3152 3154 3156 3157 3158 3157 3157 3156 3155 3157 3157 3157 3155 3154 3152 3151
3178 3179 3177 3176 3173 3171 3168 3166 3163 3160 3158 3156 3153 3151 3149 3148 3147 3146 3146 3145 3145 3144 3144 3144 3145 3146 3148 3149 3150 3151 3152 3152 3152 3152 3151 3151 3151 3151 3150 3148 3145 3142 3143
3178 3178 3176 3175 3172 3171 3169 3166 3163 3160 3159 3157 3154 3152 3150 3149 3148 3147 3147 3146 3145 3144 3144 3144 3144 3144 3145 3146 3146 3146 3146 3146 3146 3146 3144 3145 3145 3145 3142 3142 3142 3139 3139
3177 3177 3176 3173 3171 3171 3169 3166 3162 3160 3159 3157 3155 3153 3151 3150 3149 3148 3147 3146 3145 3144 3143 3143 3142 3142 3142 3141 3142 3141 3141 3141 3141 3141 3140 3138 3140 3140 3139 3138 3138 3137 3137
3175 3174 3172 3171 3171 3170 3168 3166 3162 3159 3159 3158 3156 3154 3152 3151 3150 3149 3148 3147 3145 3144 3143 3142 3141 3140 3139 3138 3138 3138 3138 3137 3136 3137 3137 3137 3137 3137 3136 3135 3135 3134 3133
3172 3171 3171 3170 3169 3170 3167 3164 3162 3160 3158 3157 3157 3156 3153 3152 3151 3150 3148 3147 3146 3144 3142 3141 3140 3139 3138 3138 3137 3136 3135 3135 3135 3135 3134 3134 3133 3133 3133 3132 3131 3130 3129
3170 3170 3170 3169 3167 3167 3164 3162 3161 3159 3158 3156 3155 3154 3154 3153 3151 3149 3148 3147 3146 3144 3142 3140 3139 3137 3137 3136 3136 3135 3135 3135 3134 3134 3134 3133 3132 3131 3130 3129 3129 3128 3127
3169 3169 3168 3167 3166 3164 3162 3160 3158 3156 3155 3154 3154 3154 3153 3152 3151 3149 3148 3146 3145 3143 3140 3138 3137 3136 3136 3135 3135 3134 3134 3133 3133 3132 3131 3130 3129 3128 3128 3127 3126 3125 3124
3166 3166 3165 3164 3162 3161 3158 3156 3155 3153 3152 3152 3152 3152 3151 3150 3149 3148 3146 3144 3142 3140 3138 3137 3136 3135 3135 3134 3133 3133 3132 3131 3130 3129 3128 3127 3127 3126 3125 3124 3123 3121 3120
3164 3163 3162 3160 3158 3156 3154 3152 3150 3149 3149 3149 3149 3149 3149 3148 3147 3146 3144 3142 3140 3138 3137 3136 3135 3134 3133 3133 3132 3130 3129 3128 3127 3126 3126 3125 3124 3123 3122 3121 3120 3118 3116
3161 3159 3158 3156 3154 3151 3149 3147 3145 3145 3147 3145 3146 3146 3147 3146 3143 3143 3141 3139 3138 3137 3135 3134 3134 3133 3131 3130 3130 3128 3126 3124 3123 3123 3122 3121 3120 3119 3118 3117 3116 3115 3112
3156 3155 3153 3150 3148 3146 3144 3142 3141 3141 3142 3143 3143 3143 3142 3141 3140 3139 3138 3137 3135 3134 3132 3131 3130 3130 3129 3127 3125 3125 3123 3122 3121 3120 3118 3117 3116 3114 3114 3113 3112 3111 3109
3152 3150 3148 3145 3143 3140 3138 3137 3137 3137 3137 3138 3138 3137 3137 3137 3135 3135 3135 3134 3132 3131 3130 3128 3128 3127 3125 3123 3122 3120 3119 3119 3117 3116 3114 3113 3112 3111 3110 3109 3109 3106 3104
3146 3145 3143 3141 3138 3136 3134 3133 3133 3133 3133 3135 3134 3134 3134 3134 3133 3132 3131 3131 3129 3128 3126 3125 3124 3123 3122 3120 3118 3117 3115 3114 3113 3112 3111 3110 3108 3107 3106 3105 3103 3102 3100
3141 3140 3138 3136 3135 3133 3132 3130 3130 3130 3130 3130 3129 3130 3129 3129 3129 3129 3128 3127 3125 3124 3123 3122 3120 3119 3117 3116 3114 3113 3112 3111 3110 3109 3108 3107 3105 3104 3104 3103 3101 3100 3098
3138 3136 3135 3133 3132 3131 3129 3128 3127 3126 3126 3126 3126 3125 3125 3125 3125 3124 3123 3122 3121 3120 3120 3118 3116 3115 3113 3111 3110 3110 3109 3107 3106 3105 3104 3104 3103 3102 3102 3100 3099 3096 3094
3134 3133 3132 3130 3129 3128 3126 3125 3124 3124 3123 3123 3123 3123 3122 3121 3120 3120 3119 3118 3117 3117 3116 3114 3112 3111 3109 3108 3108 3107 3105 3104 3103 3102 3102 3100 3100 3099 3098 3097 3095 3093 3090
3131 3130 3128 3128 3127 3125 3124 3123 3122 3121 3120 3120 3119 3119 3118 3117 3116 3115 3115 3114 3113 3112 3111 3109 3108 3107 3106 3105 3104 3103 3102 3101 3099 3099 3098 3098 3097 3095 3094 3093 3092 3090 3087
3128 3127 3126 3126 3125 3124 3123 3122 3121 3119 3117 3116 3115 3114 3113 3113 3112 3111 3110 3109 3109 3107 3106 3105 3105 3104 3103 3102 3100 3099 3097 3097 3096 3094 3095 3094 3093 3091 3091 3090 3088 3087 3085
3125 3125 3125 3124 3123 3122 3122 3120 3119 3118 3116 3114 3112 3111 3110 3109 3108 3107 3106 3106 3105 3105 3104 3104 3103 3102 3100 3098 3096 3094 3093 3092 3091 3091 3091 3090 3089 3088 3088 3087 3085 3083 3082
3123 3123 3123 3123 3122 3121 3120 3119 3118 3116 3115 3113 3111 3109 3108 3106 3105 3104 3104 3104 3104 3103 3102 3102 3100 3096 3095 3094 3091 3089 3088 3087 3087 3087 3086 3085 3084 3085 3084 3083 3082 3081 3080
3121 3122 3122 3122 3121 3120 3119 3118 3117 3116 3114 3112 3110 3108 3107 3105 3104 3104 3103 3102 3101 3100 3099 3098 3096 3094 3091 3088 3086 3085 3084 3083 3082 3081 3081 3080 3080 3080 3080 3079 3078 3078 3077
3120 3121 3121 3121 3120 3120 3118 3119 3120 3118 3116 3113 3111 3108 3105 3103 3102 3102 3101 3099 3098 3096 3094 3093 3091 3088 3086 3084 3083 3080 3079 3078 3077 3076 3075 3075 3074 3074 3074 3074 3074 3073 3072
3120 3121 3121 3121 3119 3120 3121 3120 3117 3115 3114 3113 3113 3110 3108 3105 3102 3100 3097 3095 3093 3091 3089 3088 3086 3085 3082 3080 3078 3076 3074 3073 3072 3071 3069 3069 3069 3068 3068 3068 3068 3068 3067
3116 3118 3118 3117 3116 3116 3115 3114 3113 3112 3111 3106 3106 3104 3103 3101 3100 3098 3096 3092 3089 3087 3083 3080 3078 3076 3076 3075 3073 3071 3068 3068 3066 3064 3064 3062 3062 3062 3061 3061 3061 3061 3060
3113 3114 3114 3113 3113 3112 3111 3110 3108 3107 3106 3105 3105 3101 3100 3097 3095 3093 3090 3087 3084 3081 3078 3076 3073 3071 3068 3066 3064 3065 3064 3063 3061 3060 3057 3056 3055 3054 3054 3054 3054 3053 3053
Wind_Speed
4 4 5 9 12 16 16 15 14 13 13 13 12 12 13 9 4 5 7 6 7 8 10 12 14 16 17 18 20 20 23 25 25 23 24 25 26 26 29 37 39 41 36
4 4 5 9 12 15 17 17 15 13 12 11 12 12 11 11 10 6 5 4 4 5 5 6 7 10 13 16 19 22 23 24 26 25 27 28 28 27 31 28 23 18 20
6 6 7 11 12 15 16 17 16 13 12 10 9 10 11 10 9 8 6 4 6 5 4 4 4 10 13 14 17 20 24 24 24 26 33 35 26 22 24 17 21 14 18
9 8 9 13 15 15 17 17 15 13 11 9 8 9 9 9 9 8 8 8 8 6 6 6 7 7 7 9 10 11 17 18 16 15 13 15 18 14 15 15 19 16 21
7 5 10 13 14 15 16 18 16 13 11 10 8 7 8 8 6 6 7 8 10 10 9 7 7 5 8 9 9 11 13 11 9 13 13 9 9 13 21 21 21 19 19
2 5 9 13 17 16 16 18 19 15 12 10 9 9 9 8 7 8 8 10 11 12 12 11 8 7 7 5 5 6 4 4 8 10 10 12 12 14 15 14 14 14 13
5 8 12 16 17 16 19 19 19 18 14 11 9 8 8 8 7 7 9 11 12 13 13 12 11 9 7 6 7 6 7 7 7 9 10 10 11 10 10 9 9 10 11
10 14 17 18 19 18 19 19 18 19 14 13 12 9 8 8 8 9 9 12 15 16 12 11 10 9 9 8 8 9 9 10 9 9 9 10 10 9 9 11 14 14 14
13 16 19 18 19 18 20 21 21 18 17 14 13 12 11 11 11 12 13 15 16 16 12 10 9 9 9 7 8 11 11 10 8 9 8 9 10 10 11 12 13 16 18
17 19 19 20 20 21 22 23 22 19 18 16 16 14 13 15 16 15 18 19 19 16 13 14 12 10 10 11 12 12 17 14 11 9 10 12 13 14 16 16 16 17 18
20 21 21 20 21 22 23 25 22 18 17 17 15 13 14 18 15 16 16 19 21 17 13 11 11 12 11 13 16 17 15 10 11 12 14 14 14 13 14 15 16 16 17
22 22 22 22 22 23 22 21 18 24 13 14 15 17 16 17 18 21 21 16 17 16 13 12 12 11 14 17 16 18 17 14 15 16 16 14 13 10 9 11 12 13 14
22 23 23 21 19 19 18 17 13 19 17 19 19 19 22 23 18 12 10 13 13 18 16 13 16 14 17 15 13 12 13 14 14 14 12 10 10 12 12 11 11 12 13
22 21 19 19 17 14 13 14 14 19 21 22 20 17 19 17 17 15 16 18 19 16 15 15 16 17 18 17 15 15 14 12 10 9 10 11 13 12 11 13 14 15 16
18 18 16 13 12 11 11 11 14 18 21 23 18 19 21 18 14 20 19 20 17 18 15 16 17 21 21 18 16 13 9 8 9 11 12 12 12 12 12 12 12 12 12
14 13 11 10 10 11 12 12 13 15 15 17 18 18 17 16 21 19 20 20 16 19 16 19 20 20 19 18 13 9 9 10 11 12 12 11 11 11 11 11 11 12 13
11 10 10 10 11 11 12 13 11 11 12 13 14 18 21 21 19 18 18 18 17 17 17 19 18 17 15 12 11 12 13 13 14 13 12 11 11 11 11 12 12 12 13
11 10 9 10 10 10 10 10 10 11 12 14 16 17 17 17 18 18 18 18 18 18 18 17 14 12 11 13 14 14 16 15 14 13 12 11 11 10 11 12 12 11 10
10 9 9 8 8 8 9 10 12 13 15 15 16 17 17 18 18 18 17 16 16 13 12 11 10 12 14 15 16 18 17 17 15 12 13 12 10 9 11 11 12 10 7
8 8 7 8 8 8 9 10 10 11 12 14 15 15 12 13 13 13 12 10 8 7 10 12 15 14 17 18 18 18 17 16 15 14 14 12 10 9 11 11 11 10 7
7 6 6 5 6 7 8 8 9 9 11 13 12 12 13 12 10 10 10 9 9 11 13 14 17 19 17 19 17 17 17 16 17 15 15 14 12 12 12 12 11 10 8
5 5 1 2 7 5 7 8 9 10 11 11 13 12 12 10 9 8 11 12 14 15 16 17 18 19 20 22 21 18 18 18 17 18 17 16 16 15 14 14 13 13 10
3 2 4 4 6 10 13 13 10 10 10 10 10 12 14 11 9 10 12 14 17 17 17 19 18 18 19 20 20 20 19 19 19 20 19 19 18 17 17 16 16 17 15
4 4 6 4 7 5 6 7 11 12 13 12 11 12 13 13 14 14 17 17 17 20 20 20 20 19 19 19 20 20 19 20 20 21 22 22 21 21 20 20 19 19 19
7 7 7 10 8 10 9 10 11 11 11 16 16 14 14 13 14 15 17 22 26 30 31 31 28 25 24 22 18 19 23 22 22 23 23 24 24 24 23 23 22 21 21
11 9 8 14 10 11 13 15 14 13 10 11 14 22 22 20 17 18 20 27 26 24 23 29 25 28 30 29 31 25 20 21 23 23 25 25 26 26 26 26 26 24 24
Wind_Direction
228 289 339 353 4 7 3 355 352 354 357 4 15 16 19 17 347 323 317 307 292 280 266 261 260 250 237 235 245 255 261 263 271 276 276 274 272 277 285 285 281 283 278
246 282 337 344 1 1 2 357 352 355 359 9 23 23 24 30 35 19 355 342 329 313 288 284 274 254 247 251 256 257 262 267 272 275 276 275 280 282 283 283 303 280 268
255 279 321 336 355 350 353 358 354 354 351 360 18 24 24 25 26 26 26 12 357 352 333 305 303 268 255 259 263 265 267 270 276 278 275 270 276 278 282 281 277 296 290
249 285 318 340 344 337 342 349 357 354 344 347 4 16 18 15 15 19 18 9 2 351 324 307 295 282 269 248 262 277 269 264 261 278 299 287 269 276 286 276 278 283 295
252 295 349 343 336 335 334 339 351 349 338 333 338 352 11 8 10 12 7 1 355 346 340 319 307 295 307 261 264 272 259 284 260 265 286 289 309 294 286 281 284 286 291
323 351 335 329 325 326 324 332 341 339 330 322 322 338 355 2 3 5 5 5 360 354 348 340 327 313 309 297 295 298 292 279 261 273 275 271 269 270 278 280 283 293 292
326 323 316 314 310 318 311 321 330 326 324 303 299 311 328 345 350 353 349 345 344 334 326 323 324 318 304 295 293 294 287 286 284 283 279 280 284 280 286 283 283 287 288
307 310 305 306 299 309 295 306 310 309 315 297 290 291 304 312 319 324 330 335 337 338 323 317 311 309 309 306 306 302 295 293 291 288 291 291 290 284 273 279 287 291 290
295 300 301 297 296 299 290 299 295 296 296 291 285 282 291 298 305 311 316 322 322 328 319 306 301 299 300 298 317 320 307 295 294 298 299 299 286 281 282 284 291 292 290
294 301 299 296 295 290 288 293 289 289 276 270 286 278 286 296 291 306 309 316 318 320 316 313 292 285 288 290 297 308 303 285 282 287 295 298 287 284 289 291 292 290 291
297 300 304 300 292 288 288 290 285 278 287 276 272 278 286 282 295 303 300 311 314 316 313 304 300 294 297 296 295 300 321 295 282 283 297 292 291 286 289 290 290 290 291
298 302 304 300 294 291 288 282 275 248 264 289 266 276 286 288 282 290 292 302 305 304 295 301 280 288 298 305 291 291 300 278 281 286 293 297 299 303 300 298 297 295 295
296 300 302 299 295 295 289 274 251 241 258 267 272 272 284 278 269 279 303 304 297 293 284 287 294 288 303 305 302 296 290 284 286 289 294 299 305 309 309 307 307 311 309
300 300 299 298 300 298 296 267 251 245 275 268 260 268 289 286 269 282 310 294 295 285 277 292 275 286 301 302 300 294 287 285 284 287 297 305 308 312 317 321 320 321 316
297 298 299 299 300 300 301 291 258 256 266 260 267 276 277 271 282 302 295 287 285 289 286 273 282 295 299 300 297 290 280 281 291 298 300 302 306 311 314 311 311 312 313
293 295 299 300 297 301 303 299 281 267 272 271 276 275 263 281 290 287 281 286 271 287 278 280 288 290 294 298 295 284 287 290 290 290 291 295 299 300 301 305 308 310 313
293 297 299 297 298 300 302 303 294 285 285 279 278 276 278 285 286 280 284 288 288 291 289 284 286 290 292 287 284 288 288 289 287 287 285 288 288 289 297 306 306 310 315
296 299 302 301 303 307 309 310 306 297 287 287 287 286 286 286 286 287 286 285 285 283 280 284 291 289 284 284 285 286 289 286 281 277 279 277 277 288 302 301 301 308 306
293 293 293 293 298 301 304 302 299 300 300 297 291 289 290 288 287 286 284 282 281 279 291 293 291 288 286 288 288 289 288 281 276 273 270 268 275 291 296 292 300 300 297
282 280 285 290 294 299 301 303 307 316 321 326 325 323 318 305 296 292 290 290 294 293 297 297 298 298 299 296 290 287 282 276 274 269 263 264 269 283 288 290 294 291 290
268 271 274 284 303 316 319 328 337 341 342 343 342 339 334 333 336 321 324 316 305 298 297 301 305 309 310 301 298 294 287 282 275 265 260 260 266 274 281 282 282 274 275
266 276 284 275 316 331 329 327 333 337 340 343 337 345 341 333 319 296 296 295 296 298 297 301 301 305 308 310 310 302 289 280 275 269 262 262 265 267 273 276 273 265 263
245 227 325 326 341 351 3 357 330 321 324 320 318 310 318 319 317 306 301 302 302 301 305 309 311 307 302 301 300 299 292 282 276 272 268 263 264 265 267 270 267 259 254
241 223 226 307 270 236 260 278 272 279 299 297 296 291 300 297 300 297 291 289 299 303 307 310 310 316 321 312 307 305 298 289 284 279 274 269 266 266 265 265 265 260 256
244 256 249 268 266 266 272 286 303 313 296 297 299 286 273 268 276 286 287 292 301 309 309 311 310 313 316 312 313 312 307 307 295 284 278 273 266 264 265 265 264 262 260
243 202 231 244 268 280 287 298 305 305 279 286 286 278 287 294 302 302 301 298 291 284 280 301 283 298 303 308 309 310 309 310 304 294 286 279 275 270 266 264 263 262 261